• Processing (Info)

  • MPEC 2007-V26 : 2007 VL3

    The following Minor Planet Electronic Circular may be linked-to from your own Web pages, but must not otherwise be redistributed electronically.

    A form allowing access to any MPEC is at the bottom of this page.


    Read MPEC 2007-V25 Read MPEC 2007-V27


    M.P.E.C. 2007-V26                                Issued 2007 Nov. 4, 18:59 UT
    
         The Minor Planet Electronic Circulars contain information on unusual
             minor planets and routine data on comets.  They are published
       on behalf of Commission 20 of the International Astronomical Union by the
              Minor Planet Center, Smithsonian Astrophysical Observatory,
                              Cambridge, MA 02138, U.S.A.
    
                 Prepared using the Tamkin Foundation Computer Network
    
                                  MPC@CFA.HARVARD.EDU
              URL http://www.cfa.harvard.edu/iau/mpc.html  ISSN 1523-6714
    
                                       2007 VL3
    
    Observations:
         K07V03L  C2007 11 02.32464 02 09 53.52 +23 05 08.5          19.2   EV026704
         K07V03L  C2007 11 02.33734 02 10 02.93 +23 02 46.4          19.4   EV026704
         K07V03L  C2007 11 02.34901 02 10 11.61 +23 00 35.3          19.4   EV026704
         K07V03L* C2007 11 03.24707 02 20 31.99 +20 47 12.1          19.4   EV026704
         K07V03L  C2007 11 03.25940 02 20 37.40 +20 45 43.2          19.5   EV026704
         K07V03L  C2007 11 03.27159 02 20 42.79 +20 44 16.3          19.6   EV026704
         K07V03L  C2007 11 03.28375 02 20 48.02 +20 42 48.3          19.6   EV026704
         K07V03L  C2007 11 03.29584 02 20 53.21 +20 41 21.5          19.6   EV026704
         K07V03L  C2007 11 04.00743 02 26 17.83 +19 26 11.3                 EV026J95
         K07V03L  C2007 11 04.01109 02 26 19.09 +19 25 51.4                 EV026J95
         K07V03L  C2007 11 04.01476 02 26 20.32 +19 25 31.2          19.9 R EV026J95
         K07V03L  C2007 11 04.23083 02 27 48.06 +19 07 45.6          19.6 V EV026G96
         K07V03L  C2007 11 04.23655 02 27 49.68 +19 07 17.5          19.5 V EV026G96
         K07V03L  C2007 11 04.24227 02 27 51.30 +19 06 49.4          19.7 V EV026G96
         K07V03L  C2007 11 04.24799 02 27 52.88 +19 06 21.3          19.5 V EV026G96
         K07V03L  C2007 11 04.26827 02 27 58.45 +19 04 44.6          19.3 R EV026651
         K07V03L  C2007 11 04.26914 02 27 58.70 +19 04 40.2          19.2 R EV026651
         K07V03L  C2007 11 04.27000 02 27 58.94 +19 04 36.5          19.6 R EV026651
    
    Observer details:
    651 Grasslands Observatory, Tucson.  Observer J. E. McGaha.  0.62-m f/5.1
        Newtonian reflector + CCD.
    704 Lincoln Laboratory ETS, New Mexico.  Observers M. Bezpalko, D. Torres,
        R. Kracke, G. Spitz, J. Kistler.  Measurers J. Stuart, S. Scruggs.  1.0-m
        f/2.15 reflector + CCD.
    G96 Mt. Lemmon Survey.  Observer A. Boattini.  Measurers E. C. Beshore,
        A. Boattini, G. J. Garradd, A. R. Gibbs, A. D. Grauer, R. E. Hill,
        R. A. Kowalski, S. M. Larson, R. H. McNaught.  1.5-m reflector + CCD.
    J95 Great Shefford.  Observer P. Birtwhistle.  0.40-m f/6.0 Schmidt-Cassegrain
        + CCD.
    
    Orbital elements:
    2007 VL3                                                 Earth MOID = 0.0069 AU
    Epoch 2007 Oct. 27.0 TT = JDT 2454400.5                 MPC
    M  25.94491              (2000.0)            P               Q
    n   0.56759381     Peri.  100.77609     +0.83347933     +0.55184074
    a   1.4446998      Node   225.73755     -0.52100711     +0.76801216
    e   0.4490147      Incl.    2.24072     -0.18402121     +0.32500633
    P   1.74           H   26.1           G   0.15           U   7
    Residuals in seconds of arc
    071102 704  0.2+  0.3-    071103 704  0.0   0.1+    071104 G96  0.1-  0.0
    071102 704  0.2-  0.3+    071103 704  0.5-  0.4+    071104 G96  0.1+  0.1-
    071102 704  0.1+  0.1+    071104 J95  0.6-  0.1-    071104 G96  0.1-  0.1-
    071103 704  0.0   0.4-    071104 J95  0.2+  0.1+    071104 651  0.1-  0.1+
    071103 704  0.2-  0.5-    071104 J95  0.5+  0.0     071104 651  0.1+  0.1-
    071103 704  0.7+  0.4+    071104 G96  0.2-  0.0     071104 651  0.1+  0.5+
    
    Ephemeris:
    2007 VL3                 a,e,i = 1.44, 0.45, 2                   q = 0.7960
    Date    TT    R. A. (2000) Decl.     Delta      r     Elong.  Phase     V
    2007 10 27    15 56.62   +03 56.1    0.0215   0.976    32.6   146.7    25.6
    2007 10 28    16 23.89   +11 11.1    0.0150   0.983    41.6   137.9    23.5
    2007 10 29    17 33.30   +26 59.3    0.00955  0.989    63.4   116.1    20.5
    2007 10 30    21 16.28   +47 20.9    0.00782  0.996   110.3    69.3    18.0
    2007 10 31    00 38.25   +38 08.5    0.0116   1.003   147.1    32.6    17.8
    2007 11 01    01 39.80   +29 02.8    0.0176   1.009   162.1    17.6    18.3
    2007 11 02    02 04.86   +24 11.2    0.0243   1.016   169.0    10.7    18.7
    2007 11 03    02 18.12   +21 20.0    0.0313   1.023   172.9     6.9    19.1
    2007 11 04    02 26.27   +19 29.0    0.0383   1.030   175.2     4.6    19.5
    2007 11 05    02 31.76   +18 11.6    0.0454   1.037   176.8     3.0    19.8
    2007 11 06    02 35.70   +17 14.8    0.0526   1.044   177.8     2.1    20.0
    2007 11 07    02 38.67   +16 31.4    0.0599   1.051   178.1     1.8    20.3
    2007 11 08    02 40.99   +15 57.3    0.0672   1.058   177.7     2.2    20.6
    2007 11 09    02 42.84   +15 29.8    0.0745   1.065   177.0     2.8    20.9
    2007 11 10    02 44.36   +15 07.2    0.0819   1.072   176.1     3.6    21.2
    2007 11 11    02 45.64   +14 48.5    0.0893   1.079   175.3     4.3    21.4
    2007 11 12    02 46.73   +14 32.7    0.0968   1.086   174.4     5.1    21.6
    2007 11 13    02 47.68   +14 19.4    0.104    1.093   173.5     5.9    21.9
    2007 11 14    02 48.51   +14 08.0    0.112    1.101   172.6     6.7    22.1
    2007 11 15    02 49.25   +13 58.2    0.120    1.108   171.7     7.4    22.2
    2007 11 16    02 49.93   +13 49.8    0.127    1.115   170.8     8.2    22.4
    
    Gareth V. Williams           (C) Copyright 2007 MPC           M.P.E.C. 2007-V26
    

    Read MPEC 2007-V25 Read MPEC 2007-V27


    MPEC number:

    Enter an MPEC number in one of the following forms:

    • 1997-B01 (the full form)
    • J97B01 (the packed version of the full form)
    • B01 (the abbreviated form)